Location: Acts Church of Fort Worth
(32.6786°N, 97.2668°W)
Time: 04:34:39
(UTC+00:00)

Cosmos 2228 Rocket - Pass Details

Date: 22 April 2026
Orbit: 611 x 647 km, 82.5° (Epoch: 11 May)

Event Time Altitude Azimuth Distance (km) Brightness Sun altitude
Rises 01:18:21 0° 345° (NNW) 2,906 7.0 -3.8°
Reaches altitude 10° 01:20:40 10° 338° (NNW) 1,990 6.3 -4.3°
Maximum altitude 01:24:49 42° 268° (W) 881 4.6 -5.1°
Drops below altitude 10° 01:28:55 10° 197° (SSW) 1,963 5.6 -5.9°
Sets 01:31:12 0° 191° (S) 2,861 6.4 -6.4°
